Time,TemperatureF,DewpointF,PressureIn,WindDirection,WindDirectionDegrees,WindSpeedMPH,WindSpeedGustMPH,Humidity,HourlyPrecipIn,Conditions,Clouds,dailyrainin,SoftwareType,DateUTC
2013-03-16 00:01:00,44.7,23.6,29.74,SE,143,10.0,10.0,43,0.00,,---,0.00,VWS V12.07,2013-03-16 06:01:00,
2013-03-16 00:31:00,43.8,23.9,29.72,SSE,152,5.0,10.0,45,0.00,,---,0.00,VWS V12.07,2013-03-16 06:31:00,
2013-03-16 00:46:00,43.7,23.8,29.72,SE,127,3.0,9.0,45,0.00,,---,0.00,VWS V12.07,2013-03-16 06:46:00,
2013-03-16 01:01:00,43.6,23.7,29.72,SE,127,0.0,9.0,45,0.00,,---,0.00,VWS V12.07,2013-03-16 07:01:00,
2013-03-16 01:16:00,43.4,23.5,29.72,SE,128,5.0,6.0,45,0.00,,---,0.00,VWS V12.07,2013-03-16 07:16:00,
2013-03-16 01:31:00,43.2,23.8,29.71,SSE,164,6.0,6.0,46,0.00,,---,0.00,VWS V12.07,2013-03-16 07:31:00,
2013-03-16 01:46:00,42.6,23.8,29.71,SSE,155,0.0,9.0,47,0.00,,---,0.00,VWS V12.07,2013-03-16 07:46:00,
2013-03-16 02:01:00,42.0,23.8,29.73,SSE,166,2.0,2.0,48,0.00,,---,0.00,VWS V12.07,2013-03-16 08:01:00,
2013-03-16 02:31:00,42.6,23.3,29.70,South,186,0.0,0.0,46,0.00,,---,0.00,VWS V12.07,2013-03-16 08:31:00,
2013-03-16 02:46:00,42.5,23.2,29.70,South,172,3.0,7.0,46,0.00,,---,0.00,VWS V12.07,2013-03-16 08:46:00,
2013-03-16 03:01:00,42.5,23.7,29.70,South,172,0.0,0.0,47,0.00,,---,0.00,VWS V12.07,2013-03-16 09:01:00,
2013-03-16 03:16:00,42.7,23.9,29.70,SE,132,2.0,5.0,47,0.00,,---,0.00,VWS V12.07,2013-03-16 09:16:00,
2013-03-16 03:31:00,46.1,26.5,29.67,SSW,205,12.0,13.0,46,0.00,,---,0.00,VWS V12.07,2013-03-16 09:31:00,
2013-03-16 03:46:00,48.6,25.4,29.64,WNW,296,0.0,13.0,40,0.00,,---,0.00,VWS V12.07,2013-03-16 09:46:00,
2013-03-16 04:01:00,47.8,26.4,29.65,WNW,288,0.0,0.0,43,0.00,,---,0.00,VWS V12.07,2013-03-16 10:01:00,
2013-03-16 04:16:00,45.0,25.0,29.68,North,355,0.0,5.0,45,0.00,,---,0.00,VWS V12.07,2013-03-16 10:16:00,
2013-03-16 04:31:00,43.5,25.1,29.68,North,355,0.0,0.0,48,0.00,,---,0.00,VWS V12.07,2013-03-16 10:31:00,
2013-03-16 04:46:00,41.9,25.6,29.69,North,355,0.0,0.0,52,0.00,,---,0.00,VWS V12.07,2013-03-16 10:46:00,
2013-03-16 05:01:00,40.4,25.1,29.71,North,355,0.0,1.0,54,0.00,,---,0.00,VWS V12.07,2013-03-16 11:01:00,
2013-03-16 05:16:00,39.6,25.2,29.71,North,355,0.0,0.0,56,0.00,,---,0.00,VWS V12.07,2013-03-16 11:16:00,
2013-03-16 05:31:00,38.5,24.6,29.72,North,355,0.0,0.0,57,0.00,,---,0.00,VWS V12.07,2013-03-16 11:31:00,
2013-03-16 05:46:00,38.2,24.3,29.72,West,271,0.0,0.0,57,0.00,,---,0.00,VWS V12.07,2013-03-16 11:46:00,
2013-03-16 06:01:00,38.3,24.8,29.72,West,271,0.0,0.0,58,0.00,,---,0.00,VWS V12.07,2013-03-16 12:01:00,
2013-03-16 06:16:00,37.8,24.8,29.74,West,271,0.0,0.0,59,0.00,,---,0.00,VWS V12.07,2013-03-16 12:16:00,
2013-03-16 06:31:00,38.1,24.6,29.74,West,271,0.0,0.0,58,0.00,,---,0.00,VWS V12.07,2013-03-16 12:31:00,
2013-03-16 06:46:00,37.5,24.5,29.76,SE,136,0.0,4.0,59,0.00,,---,0.00,VWS V12.07,2013-03-16 12:46:00,
2013-03-16 07:01:00,39.7,24.9,29.74,SE,136,0.0,0.0,55,0.00,,---,0.00,VWS V12.07,2013-03-16 13:01:00,
2013-03-16 07:16:00,40.2,24.9,29.74,SE,136,0.0,0.0,54,0.00,,---,0.00,VWS V12.07,2013-03-16 13:16:00,
2013-03-16 07:31:00,39.7,25.3,29.74,South,181,0.0,0.0,56,0.00,,---,0.00,VWS V12.07,2013-03-16 13:31:00,
2013-03-16 07:46:00,39.4,25.5,29.75,South,181,0.0,0.0,57,0.00,,---,0.00,VWS V12.07,2013-03-16 13:46:00,
2013-03-16 08:01:00,39.2,25.7,29.76,South,181,0.0,0.0,58,0.00,,---,0.00,VWS V12.07,2013-03-16 14:01:00,
2013-03-16 08:16:00,39.1,26.4,29.78,South,180,0.0,0.0,60,0.00,,---,0.00,VWS V12.07,2013-03-16 14:16:00,
2013-03-16 08:31:00,39.9,26.8,29.78,South,182,0.0,0.0,59,0.00,,---,0.00,VWS V12.07,2013-03-16 14:31:00,
2013-03-16 08:46:00,41.4,27.3,29.77,West,281,0.0,0.0,57,0.00,,---,0.00,VWS V12.07,2013-03-16 14:46:00,
2013-03-16 09:01:00,43.3,27.8,29.75,West,281,0.0,0.0,54,0.00,,---,0.00,VWS V12.07,2013-03-16 15:01:00,
2013-03-16 09:16:00,44.8,27.8,29.76,NNW,341,6.0,10.0,51,0.00,,---,0.00,VWS V12.07,2013-03-16 15:16:00,
2013-03-16 09:31:00,44.2,27.2,29.78,North,360,4.0,6.0,51,0.00,,---,0.00,VWS V12.07,2013-03-16 15:31:00,
2013-03-16 09:46:00,43.7,29.5,29.78,North,355,3.0,14.0,57,0.00,,---,0.00,VWS V12.07,2013-03-16 15:46:00,
2013-03-16 10:01:00,43.0,32.8,29.78,North,349,12.0,16.0,67,0.00,,---,0.00,VWS V12.07,2013-03-16 16:01:00,
2013-03-16 10:16:00,42.3,33.2,29.81,NNW,328,10.0,17.0,70,0.00,,---,0.00,VWS V12.07,2013-03-16 16:16:00,
2013-03-16 10:31:00,39.5,32.9,29.84,NNW,331,0.0,17.0,77,0.00,,---,0.00,VWS V12.07,2013-03-16 16:31:00,
2013-03-16 10:46:00,38.3,33.6,29.85,NNW,328,0.0,10.0,83,0.00,,---,0.00,VWS V12.07,2013-03-16 16:46:00,
2013-03-16 11:01:00,37.8,33.4,29.85,NNW,341,6.0,6.0,84,0.00,,---,0.00,VWS V12.07,2013-03-16 17:01:00,
2013-03-16 11:16:00,37.0,32.9,29.89,NNW,345,0.0,10.0,85,0.00,,---,0.00,VWS V12.07,2013-03-16 17:16:00,
2013-03-16 11:31:00,36.5,32.7,29.89,NW,315,1.0,2.0,86,0.01,,---,0.01,VWS V12.07,2013-03-16 17:31:00,
2013-03-16 11:46:00,36.2,32.7,29.90,NW,316,1.0,6.0,87,0.03,,---,0.03,VWS V12.07,2013-03-16 17:46:00,
2013-03-16 12:01:00,36.6,33.4,29.88,NW,316,0.0,0.0,88,0.06,,---,0.06,VWS V12.07,2013-03-16 18:01:00,
2013-03-16 12:16:00,36.7,33.5,29.90,NW,315,0.0,0.0,88,0.07,,---,0.07,VWS V12.07,2013-03-16 18:16:00,
2013-03-16 12:31:00,37.3,34.1,29.88,SSE,166,0.0,0.0,88,0.08,,---,0.08,VWS V12.07,2013-03-16 18:31:00,
2013-03-16 12:53:00,37.0,34.1,29.87,ESE,119,3.0,10.0,89,0.09,,---,0.10,VWS V12.07,2013-03-16 18:53:00,
2013-03-16 13:02:00,36.5,33.6,29.86,South,172,7.0,11.0,89,0.04,,---,0.10,VWS V12.07,2013-03-16 19:02:00,
2013-03-16 13:31:00,38.0,35.6,29.86,SSE,163,2.0,13.0,91,0.04,,---,0.10,VWS V12.07,2013-03-16 19:31:00,
2013-03-16 14:16:00,36.9,34.5,29.84,SSE,148,6.0,13.0,91,0.00,,---,0.10,VWS V12.07,2013-03-16 20:16:00,
2013-03-16 14:31:00,37.3,34.9,29.83,ESE,105,5.0,8.0,91,0.00,,---,0.10,VWS V12.07,2013-03-16 20:31:00,
2013-03-16 14:46:00,38.4,36.3,29.82,ESE,108,11.0,15.0,92,0.00,,---,0.10,VWS V12.07,2013-03-16 20:46:00,
2013-03-16 15:01:00,38.3,35.9,29.81,SE,142,9.0,12.0,91,0.00,,---,0.10,VWS V12.07,2013-03-16 21:01:00,
2013-03-16 15:16:00,39.7,37.3,29.73,SE,126,12.0,13.0,91,0.00,,---,0.10,VWS V12.07,2013-03-16 21:16:00,
2013-03-16 15:31:00,40.6,37.9,29.73,SE,131,4.0,6.0,90,0.00,,---,0.10,VWS V12.07,2013-03-16 21:31:00,
2013-03-16 15:46:00,41.4,37.5,29.72,East,101,10.0,18.0,86,0.00,,---,0.10,VWS V12.07,2013-03-16 21:46:00,
2013-03-16 16:01:00,42.1,36.7,29.69,SE,140,4.0,18.0,81,0.00,,---,0.10,VWS V12.07,2013-03-16 22:01:00,
2013-03-16 16:16:00,42.9,35.9,29.76,South,173,8.0,16.0,76,0.00,,---,0.10,VWS V12.07,2013-03-16 22:16:00,
2013-03-16 16:31:00,43.4,35.7,29.75,SE,131,4.0,4.0,74,0.00,,---,0.10,VWS V12.07,2013-03-16 22:31:00,
2013-03-16 16:46:00,43.8,35.7,29.73,ESE,121,4.0,12.0,73,0.00,,---,0.10,VWS V12.07,2013-03-16 22:46:00,
2013-03-16 17:01:00,44.5,35.0,29.73,ESE,111,7.0,7.0,69,0.00,,---,0.10,VWS V12.07,2013-03-16 23:01:00,
2013-03-16 17:16:00,44.0,34.5,29.75,SE,124,5.0,13.0,69,0.00,,---,0.10,VWS V12.07,2013-03-16 23:16:00,
2013-03-16 17:31:00,43.1,34.3,29.77,SSE,161,6.0,7.0,71,0.00,,---,0.10,VWS V12.07,2013-03-16 23:31:00,
2013-03-16 17:46:00,43.0,34.2,29.76,ESE,102,0.0,7.0,71,0.00,,---,0.10,VWS V12.07,2013-03-16 23:46:00,
2013-03-16 18:01:00,44.1,34.2,29.75,ESE,107,0.0,0.0,68,0.00,,---,0.10,VWS V12.07,2013-03-17 00:01:00,
2013-03-16 18:31:00,44.2,34.0,29.73,ESE,109,0.0,0.0,67,0.00,,---,0.10,VWS V12.07,2013-03-17 00:31:00,
2013-03-16 18:46:00,44.0,34.1,29.74,ESE,109,5.0,6.0,68,0.00,,---,0.10,VWS V12.07,2013-03-17 00:46:00,
2013-03-16 19:01:00,42.9,32.3,29.75,South,184,3.0,4.0,66,0.00,,---,0.10,VWS V12.07,2013-03-17 01:01:00,
2013-03-16 19:16:00,42.5,31.6,29.74,SSE,164,5.0,9.0,65,0.00,,---,0.10,VWS V12.07,2013-03-17 01:16:00,
2013-03-16 19:31:00,42.0,29.5,29.76,South,175,4.0,5.0,61,0.00,,---,0.10,VWS V12.07,2013-03-17 01:31:00,
2013-03-16 19:46:00,41.5,28.7,29.76,South,186,5.0,9.0,60,0.00,,---,0.10,VWS V12.07,2013-03-17 01:46:00,
2013-03-16 20:01:00,40.7,28.3,29.75,South,188,6.0,6.0,61,0.00,,---,0.10,VWS V12.07,2013-03-17 02:01:00,
2013-03-16 20:16:00,40.2,28.2,29.74,NNW,330,2.0,11.0,62,0.00,,---,0.10,VWS V12.07,2013-03-17 02:16:00,
2013-03-16 20:46:00,38.4,29.1,29.75,WNW,286,0.0,7.0,69,0.00,,---,0.10,VWS V12.07,2013-03-17 02:46:00,
2013-03-16 21:31:00,36.2,27.4,29.79,SSE,168,3.0,3.0,70,0.00,,---,0.10,VWS V12.07,2013-03-17 03:31:00,
2013-03-16 21:46:00,34.4,27.0,29.79,SSE,168,4.0,5.0,74,0.00,,---,0.10,VWS V12.07,2013-03-17 03:46:00,
2013-03-16 22:01:00,34.7,27.0,29.80,SSE,152,2.0,4.0,73,0.00,,---,0.10,VWS V12.07,2013-03-17 04:01:00,
2013-03-16 22:16:00,36.3,27.1,29.82,South,175,5.0,7.0,69,0.00,,---,0.10,VWS V12.07,2013-03-17 04:16:00,
2013-03-16 22:31:00,36.2,27.0,29.82,SSE,167,2.0,2.0,69,0.00,,---,0.10,VWS V12.07,2013-03-17 04:31:00,
2013-03-16 22:46:00,35.5,27.0,29.82,SSE,159,0.0,7.0,71,0.00,,---,0.10,VWS V12.07,2013-03-17 04:46:00,
2013-03-16 23:01:00,35.2,26.8,29.82,SE,145,2.0,7.0,71,0.00,,---,0.10,VWS V12.07,2013-03-17 05:01:00,
2013-03-16 23:16:00,36.1,26.6,29.82,SE,132,7.0,11.0,68,0.00,,---,0.10,VWS V12.07,2013-03-17 05:16:00,
2013-03-16 23:31:00,36.1,25.9,29.82,SE,140,0.0,11.0,66,0.00,,---,0.10,VWS V12.07,2013-03-17 05:31:00,
2013-03-16 23:46:00,35.5,25.3,29.81,SSE,155,0.0,7.0,66,0.00,,---,0.10,VWS V12.07,2013-03-17 05:46:00,